Location: Izdebno
(52.6670°N, 16.2170°E)
Time: 04:38:12
(UTC+02:00)

Transit 4A - Pass Details

Date: 23 February 2024
Orbit: 871 x 972 km, 66.8° (Epoch: 22 April)

Event Time Altitude Azimuth Distance (km) Brightness Sun altitude
Rises 01:03:50 0° 181° (S) 3,605 - -46.0°
Reaches altitude 10° 01:06:39 10° 172° (S) 2,649 - -45.8°
Maximum altitude 01:11:56 31° 112° (ESE) 1,570 - -45.5°
Exits shadow 01:16:31 13° 56° (ENE) 2,409 10.5 -45.3°
Drops below altitude 10° 01:17:08 10° 53° (NE) 2,603 10.7 -45.2°
Sets 01:19:52 0° 44° (NE) 3,532 11.6 -45.0°
